BEIDOU-3 M18 (C37)

Last updated on Sat Jul 19 2025 00:03:24 GMT+0000 (Coordinated Universal Time)

1 43707U 18093B 25198.64829991 .00000113 00000+0 00000+0 0 9998 2 43707 54.1849 193.6367 0008203 312.9714 46.9669 1.86229682 45305
UTC large
Height (km)
Speed (km/s)
/
Latitude / Longitude
Inclination (degrees)
Orbital Period (minutes)
Azimuth
Elevation
Range (km)
Doppler Factor

Next 0 passes for location: London (51.5072 / 0.1276)

Sorry there are no passes over London.